Location: Saint-Hippolyte
(43.6394°N, 4.7559°E)
Time: 15:25:27
(UTC+00:00)

ATLAS 5 CENTAUR R/B - Pass Details

Date: 24 October 2020
Orbit: 531 x 1127 km, 63.4° (Epoch: 22 November)

Event Time Altitude Azimuth Distance (km) Brightness Sun altitude
Rises 17:59:04 0° 282° (WNW) 2,793 6.5 -14.4°
Reaches altitude 10° 18:02:39 10° 315° (NW) 1,996 4.8 -15.1°
Maximum altitude 18:04:23 12° 337° (NNW) 1,923 4.3 -15.4°
Drops below altitude 10° 18:06:13 10° 0° (N) 2,117 4.3 -15.7°
Enters shadow 18:09:25 - 26° (NNE) 2,910 4.7 -16.3°
